Station Historical Data
Daily Summary for April 21, 2017 Units:  English    Metric   Both
Next Day »
Daily Weekly Monthly Yearly Custom
  High: Low: Average:
Temperature: 70.0 °F 45.4 °F 56.4 °F
Dew Point: 51.0 °F 35.1 °F 43.1 °F
Humidity: 86% 34% 63%
Wind Speed: 9.0mph 0.0mph 1.6mph
Wind Gust: 15.0mph - -
Wind- - South
Pressure: 30.27 in 30.01 in -
Precipitation: 0.00 in    
Historical Graphs
 
 
Tabular Data for April 21, 2017
Time Temperature Dew Point Pressure Wind Wind Speed Wind Gust Humidity Rainfall Rate (Hourly) solar Conditions
00:04 45.7 °F 41.8 °F 30.27 in Calm   3.0 mph 86% 0.00 in 0.00 W/m2
00:09 45.7 °F 41.8 °F 30.26 in ENE 1.0 mph 2.0 mph 86% 0.00 in 0.00 W/m2
00:14 45.7 °F 41.8 °F 30.27 in Calm   2.0 mph 86% 0.00 in 0.00 W/m2
00:19 45.6 °F 41.7 °F 30.26 in East 1.0 mph 2.0 mph 86% 0.00 in 0.00 W/m2
00:24 45.6 °F 41.7 °F 30.26 in Calm   3.0 mph 86% 0.00 in 0.00 W/m2
00:29 45.6 °F 41.7 °F 30.26 in East 2.0 mph 5.0 mph 86% 0.00 in 0.00 W/m2
00:34 45.6 °F 41.7 °F 30.26 in Calm   6.0 mph 86% 0.00 in 0.00 W/m2
00:39 45.5 °F 41.6 °F 30.26 in ESE 1.0 mph 4.0 mph 86% 0.00 in 0.00 W/m2
00:45 45.6 °F 41.4 °F 30.26 in Calm   6.0 mph 85% 0.00 in 0.00 W/m2
00:50 45.6 °F 41.4 °F 30.26 in Calm   8.0 mph 85% 0.00 in 0.00 W/m2
00:55 45.5 °F 41.3 °F 30.26 in Calm   5.0 mph 85% 0.00 in 0.00 W/m2
01:00 45.6 °F 41.0 °F 30.26 in ESE 1.0 mph 6.0 mph 84% 0.00 in 0.00 W/m2
01:05 45.6 °F 41.0 °F 30.26 in East 4.0 mph 7.0 mph 84% 0.00 in 0.00 W/m2
01:10 45.6 °F 40.7 °F 30.26 in ESE 5.0 mph 8.0 mph 83% 0.00 in 0.00 W/m2
01:15 45.6 °F 40.4 °F 30.26 in Calm   7.0 mph 82% 0.00 in 0.00 W/m2
01:20 45.6 °F 40.4 °F 30.26 in East 2.0 mph 7.0 mph 82% 0.00 in 0.00 W/m2
01:21 45.6 °F 40.4 °F 30.25 in East 1.0 mph 8.0 mph 82% 0.00 in 0.00 W/m2
01:26 45.7 °F 40.5 °F 30.25 in Calm   8.0 mph 82% 0.00 in 0.00 W/m2
01:31 45.7 °F 40.5 °F 30.25 in ESE 4.0 mph 7.0 mph 82% 0.00 in 0.00 W/m2
01:36 45.7 °F 40.2 °F 30.25 in ESE 1.0 mph 6.0 mph 81% 0.00 in 0.00 W/m2
01:41 45.7 °F 40.2 °F 30.25 in ESE 2.0 mph 7.0 mph 81% 0.00 in 0.00 W/m2
01:46 45.7 °F 39.9 °F 30.25 in ESE 6.0 mph 8.0 mph 80% 0.00 in 0.00 W/m2
01:51 45.7 °F 39.6 °F 30.25 in ESE 6.0 mph 9.0 mph 79% 0.00 in 0.00 W/m2
01:56 45.7 °F 39.6 °F 30.25 in Calm   7.0 mph 79% 0.00 in 0.00 W/m2
02:01 45.7 °F 39.6 °F 30.25 in ESE 2.0 mph 6.0 mph 79% 0.00 in 0.00 W/m2
02:06 45.7 °F 39.6 °F 30.25 in Calm   6.0 mph 79% 0.00 in 0.00 W/m2
02:16 45.6 °F 39.5 °F 30.24 in Calm   6.0 mph 79% 0.00 in 0.00 W/m2
02:21 45.6 °F 39.2 °F 30.24 in ESE 1.0 mph 8.0 mph 78% 0.00 in 0.00 W/m2
02:26 45.5 °F 39.0 °F 30.24 in ESE 4.0 mph 5.0 mph 78% 0.00 in 0.00 W/m2
02:31 45.4 °F 38.3 °F 30.23 in Calm   7.0 mph 76% 0.00 in 0.00 W/m2
02:36 45.4 °F 38.3 °F 30.23 in ESE 2.0 mph 5.0 mph 76% 0.00 in 0.00 W/m2
02:41 45.4 °F 38.0 °F 30.23 in ESE 2.0 mph 5.0 mph 75% 0.00 in 0.00 W/m2
02:46 45.4 °F 38.0 °F 30.22 in ESE 1.0 mph 4.0 mph 75% 0.00 in 0.00 W/m2
02:51 45.5 °F 38.0 °F 30.23 in East 2.0 mph 6.0 mph 75% 0.00 in 0.00 W/m2
02:52 45.5 °F 38.0 °F 30.23 in ESE 1.0 mph 6.0 mph 75% 0.00 in 0.00 W/m2
02:56 45.5 °F 37.7 °F 30.22 in Calm   6.0 mph 74% 0.00 in 0.00 W/m2
03:02 45.5 °F 37.7 °F 30.22 in Calm   9.0 mph 74% 0.00 in 0.00 W/m2
03:07 45.6 °F 37.8 °F 30.22 in ESE 4.0 mph 5.0 mph 74% 0.00 in 0.00 W/m2
03:12 45.6 °F 37.8 °F 30.21 in ENE 1.0 mph 7.0 mph 74% 0.00 in 0.00 W/m2
03:17 45.5 °F 37.7 °F 30.21 in ESE 1.0 mph 6.0 mph 74% 0.00 in 0.00 W/m2
03:22 45.5 °F 37.7 °F 30.21 in East 7.0 mph 7.0 mph 74% 0.00 in 0.00 W/m2
03:27 45.5 °F 37.4 °F 30.22 in East 1.0 mph 7.0 mph 73% 0.00 in 0.00 W/m2
03:32 45.5 °F 37.4 °F 30.22 in East 1.0 mph 5.0 mph 73% 0.00 in 0.00 W/m2
03:37 45.6 °F 37.5 °F 30.22 in ESE 1.0 mph 7.0 mph 73% 0.00 in 0.00 W/m2
03:42 45.6 °F 37.8 °F 30.22 in ESE 2.0 mph 7.0 mph 74% 0.00 in 0.00 W/m2
03:47 45.6 °F 37.5 °F 30.22 in East 7.0 mph 9.0 mph 73% 0.00 in 0.00 W/m2
03:52 45.5 °F 37.4 °F 30.22 in East 2.0 mph 5.0 mph 73% 0.00 in 0.00 W/m2
03:57 45.5 °F 37.4 °F 30.22 in East 1.0 mph 6.0 mph 73% 0.00 in 0.00 W/m2
04:02 45.5 °F 37.7 °F 30.22 in Calm   4.0 mph 74% 0.00 in 0.00 W/m2
04:07 45.5 °F 37.7 °F 30.22 in East 1.0 mph 5.0 mph 74% 0.00 in 0.00 W/m2
04:17 45.5 °F 37.4 °F 30.21 in East 1.0 mph 5.0 mph 73% 0.00 in 0.00 W/m2
04:22 45.5 °F 37.7 °F 30.21 in Calm   5.0 mph 74% 0.00 in 0.00 W/m2
04:27 45.5 °F 37.4 °F 30.21 in East 1.0 mph 5.0 mph 73% 0.00 in 0.00 W/m2
04:32 45.5 °F 36.7 °F 30.21 in East 1.0 mph 4.0 mph 71% 0.00 in 0.00 W/m2
04:37 45.5 °F 36.7 °F 30.20 in East 6.0 mph 8.0 mph 71% 0.00 in 0.00 W/m2
04:42 45.6 °F 37.5 °F 30.20 in East 5.0 mph 5.0 mph 73% 0.00 in 0.00 W/m2
04:47 45.7 °F 36.8 °F 30.20 in East 2.0 mph 8.0 mph 71% 0.00 in 0.00 W/m2
04:52 45.8 °F 36.6 °F 30.19 in East 1.0 mph 8.0 mph 70% 0.00 in 0.00 W/m2
04:57 45.9 °F 36.7 °F 30.20 in East 2.0 mph 7.0 mph 70% 0.00 in 0.00 W/m2
05:02 46.0 °F 36.4 °F 30.20 in Calm   6.0 mph 69% 0.00 in 0.00 W/m2
05:07 46.1 °F 36.9 °F 30.20 in East 3.0 mph 6.0 mph 70% 0.00 in 0.00 W/m2
05:12 46.1 °F 36.9 °F 30.20 in East 2.0 mph 6.0 mph 70% 0.00 in 0.00 W/m2
05:17 46.2 °F 37.0 °F 30.20 in Calm   8.0 mph 70% 0.00 in 0.00 W/m2
05:22 46.2 °F 36.6 °F 30.20 in East 4.0 mph 6.0 mph 69% 0.00 in 0.00 W/m2
05:27 46.2 °F 37.0 °F 30.19 in Calm   6.0 mph 70% 0.00 in 0.00 W/m2
05:32 46.2 °F 36.2 °F 30.20 in East 1.0 mph 4.0 mph 68% 0.00 in 0.00 W/m2
05:37 46.2 °F 35.9 °F 30.21 in East 3.0 mph 4.0 mph 67% 0.00 in 0.00 W/m2
05:42 46.2 °F 36.2 °F 30.20 in Calm   3.0 mph 68% 0.00 in 0.00 W/m2
05:47 46.2 °F 36.2 °F 30.20 in East 2.0 mph 2.0 mph 68% 0.00 in 0.00 W/m2
05:52 46.2 °F 36.2 °F 30.20 in Calm     68% 0.00 in 0.00 W/m2
05:57 46.1 °F 36.1 °F 30.20 in East 1.0 mph 2.0 mph 68% 0.00 in 0.00 W/m2
06:02 46.0 °F 36.4 °F 30.20 in East 1.0 mph 2.0 mph 69% 0.00 in 0.00 W/m2
06:07 46.0 °F 36.4 °F 30.19 in East 1.0 mph 4.0 mph 69% 0.00 in 0.00 W/m2
06:12 45.9 °F 36.3 °F 30.20 in East 2.0 mph 6.0 mph 69% 0.00 in 0.00 W/m2
06:17 45.8 °F 36.6 °F 30.19 in East 2.0 mph 4.0 mph 70% 0.00 in 7.00 W/m2
06:22 45.8 °F 36.2 °F 30.19 in East 4.0 mph 4.0 mph 69% 0.00 in 9.00 W/m2
06:27 45.8 °F 36.2 °F 30.19 in ESE 1.0 mph 7.0 mph 69% 0.00 in 12.00 W/m2
06:32 45.7 °F 35.4 °F 30.19 in ESE 5.0 mph 7.0 mph 67% 0.00 in 16.00 W/m2
06:37 45.8 °F 35.5 °F 30.19 in East 1.0 mph 8.0 mph 67% 0.00 in 19.00 W/m2
06:42 45.8 °F 35.5 °F 30.19 in East 2.0 mph 7.0 mph 67% 0.00 in 25.00 W/m2
06:43 45.8 °F 35.1 °F 30.19 in East 2.0 mph 7.0 mph 66% 0.00 in 25.00 W/m2
06:48 46.0 °F 36.0 °F 30.19 in East 4.0 mph 11.0 mph 68% 0.00 in 33.00 W/m2
06:53 46.1 °F 35.4 °F 30.19 in East 2.0 mph 8.0 mph 66% 0.00 in 46.00 W/m2
06:58 46.3 °F 35.6 °F 30.19 in Calm   11.0 mph 66% 0.00 in 56.00 W/m2
07:03 46.4 °F 36.4 °F 30.20 in Calm   6.0 mph 68% 0.00 in 74.00 W/m2
07:08 46.5 °F 35.4 °F 30.20 in East 1.0 mph 4.0 mph 65% 0.00 in 95.00 W/m2
07:13 46.7 °F 36.0 °F 30.20 in Calm   5.0 mph 66% 0.00 in 114.00 W/m2
07:18 46.8 °F 36.8 °F 30.20 in ESE 6.0 mph 6.0 mph 68% 0.00 in 128.00 W/m2
07:23 46.9 °F 36.9 °F 30.20 in East 1.0 mph 5.0 mph 68% 0.00 in 151.00 W/m2
07:28 47.0 °F 37.0 °F 30.19 in ESE 5.0 mph 11.0 mph 68% 0.00 in 178.00 W/m2
07:34 47.1 °F 37.5 °F 30.19 in East 7.0 mph 9.0 mph 69% 0.00 in 202.00 W/m2
07:39 47.2 °F 37.2 °F 30.19 in East 7.0 mph 9.0 mph 68% 0.00 in 225.00 W/m2
07:44 47.4 °F 37.4 °F 30.19 in Calm   8.0 mph 68% 0.00 in 239.00 W/m2
07:49 47.5 °F 37.5 °F 30.19 in ESE 4.0 mph 12.0 mph 68% 0.00 in 204.00 W/m2
07:54 47.7 °F 37.3 °F 30.19 in East 4.0 mph 8.0 mph 67% 0.00 in 241.00 W/m2
07:59 47.9 °F 37.9 °F 30.19 in East 1.0 mph 7.0 mph 68% 0.00 in 301.00 W/m2
08:04 48.0 °F 38.0 °F 30.19 in Calm   8.0 mph 68% 0.00 in 315.00 W/m2
08:09 48.2 °F 37.8 °F 30.19 in Calm   7.0 mph 67% 0.00 in 308.00 W/m2
08:19 48.7 °F 39.0 °F 30.19 in East 6.0 mph 9.0 mph 69% 0.00 in 364.00 W/m2
08:24 48.9 °F 38.8 °F 30.19 in East 4.0 mph 8.0 mph 68% 0.00 in 381.00 W/m2
08:29 49.2 °F 39.5 °F 30.19 in East 1.0 mph 11.0 mph 69% 0.00 in 388.00 W/m2
08:34 49.4 °F 40.0 °F 30.19 in East 1.0 mph 5.0 mph 70% 0.00 in 415.00 W/m2
08:41 49.7 °F 39.2 °F 30.19 in Calm   4.0 mph 67% 0.00 in 438.00 W/m2
08:46 50.1 °F 40.3 °F 30.19 in Calm   5.0 mph 69% 0.00 in 455.00 W/m2
08:51 50.3 °F 39.8 °F 30.18 in Calm   2.0 mph 67% 0.00 in 475.00 W/m2
08:56 50.7 °F 40.5 °F 30.18 in East 1.0 mph 4.0 mph 68% 0.00 in 492.00 W/m2
09:01 51.0 °F 41.2 °F 30.18 in Calm   6.0 mph 69% 0.00 in 508.00 W/m2
09:06 51.3 °F 40.7 °F 30.18 in East 2.0 mph 2.0 mph 67% 0.00 in 524.00 W/m2
09:11 51.6 °F 39.0 °F 30.18 in Calm   2.0 mph 62% 0.00 in 538.00 W/m2
09:16 52.1 °F 39.5 °F 30.18 in Calm   4.0 mph 62% 0.00 in 555.00 W/m2
09:21 52.9 °F 39.8 °F 30.18 in East 3.0 mph 3.0 mph 61% 0.00 in 570.00 W/m2
09:26 53.8 °F 39.4 °F 30.18 in Calm   3.0 mph 58% 0.00 in 584.00 W/m2
09:31 54.6 °F 41.4 °F 30.18 in ENE 1.0 mph 2.0 mph 61% 0.00 in 601.00 W/m2
09:36 55.0 °F 42.2 °F 30.18 in Calm   3.0 mph 62% 0.00 in 615.00 W/m2
09:41 55.3 °F 41.7 °F 30.18 in Calm     60% 0.00 in 633.00 W/m2
09:46 55.6 °F 42.4 °F 30.18 in Calm   4.0 mph 61% 0.00 in 643.00 W/m2
09:51 55.8 °F 43.0 °F 30.17 in NE 1.0 mph 2.0 mph 62% 0.00 in 657.00 W/m2
09:56 56.0 °F 41.5 °F 30.18 in NE 1.0 mph 3.0 mph 58% 0.00 in 671.00 W/m2
10:01 56.2 °F 43.4 °F 30.17 in Calm     62% 0.00 in 687.00 W/m2
10:06 56.4 °F 41.8 °F 30.17 in NE 2.0 mph 3.0 mph 58% 0.00 in 701.00 W/m2
10:11 56.6 °F 41.6 °F 30.17 in North 2.0 mph 2.0 mph 57% 0.00 in 715.00 W/m2
10:16 56.8 °F 43.1 °F 30.17 in North 1.0 mph 3.0 mph 60% 0.00 in 728.00 W/m2
10:21 56.9 °F 39.0 °F 30.17 in North 3.0 mph 4.0 mph 51% 0.00 in 740.00 W/m2
10:26 57.2 °F 39.8 °F 30.17 in Calm   3.0 mph 52% 0.00 in 758.00 W/m2
10:31 57.7 °F 36.5 °F 30.17 in Calm   1.0 mph 45% 0.00 in 768.00 W/m2
10:36 58.2 °F 35.8 °F 30.17 in Calm     43% 0.00 in 779.00 W/m2
10:41 58.8 °F 39.2 °F 30.17 in Calm   1.0 mph 48% 0.00 in 791.00 W/m2
10:46 59.4 °F 35.1 °F 30.17 in Calm   4.0 mph 40% 0.00 in 803.00 W/m2
10:51 60.0 °F 35.6 °F 30.17 in North 3.0 mph 3.0 mph 40% 0.00 in 814.00 W/m2
10:56 60.6 °F 38.0 °F 30.17 in Calm   4.0 mph 43% 0.00 in 823.00 W/m2
11:01 61.0 °F 41.2 °F 30.17 in North 3.0 mph 4.0 mph 48% 0.00 in 831.00 W/m2
11:06 61.3 °F 42.0 °F 30.17 in North 1.0 mph 3.0 mph 49% 0.00 in 842.00 W/m2
11:11 61.6 °F 41.2 °F 30.17 in Calm   4.0 mph 47% 0.00 in 853.00 W/m2
11:16 61.9 °F 40.3 °F 30.17 in North 1.0 mph 6.0 mph 45% 0.00 in 863.00 W/m2
11:21 62.5 °F 36.6 °F 30.17 in NNW 3.0 mph 3.0 mph 38% 0.00 in 872.00 W/m2
11:26 62.9 °F 38.2 °F 30.16 in Calm     40% 0.00 in 879.00 W/m2
11:31 63.1 °F 38.4 °F 30.16 in Calm     40% 0.00 in 886.00 W/m2
11:36 63.5 °F 42.4 °F 30.16 in Calm     46% 0.00 in 895.00 W/m2
11:41 63.8 °F 37.7 °F 30.16 in NNW 5.0 mph 6.0 mph 38% 0.00 in 893.00 W/m2
11:46 64.0 °F 37.9 °F 30.16 in NNW 1.0 mph 2.0 mph 38% 0.00 in 907.00 W/m2
11:51 64.3 °F 36.8 °F 30.16 in NNW 2.0 mph 3.0 mph 36% 0.00 in 912.00 W/m2
11:56 64.7 °F 38.5 °F 30.16 in NNW 3.0 mph 5.0 mph 38% 0.00 in 918.00 W/m2
12:01 65.1 °F 39.5 °F 30.16 in NW 3.0 mph 4.0 mph 39% 0.00 in 923.00 W/m2
12:06 65.5 °F 39.9 °F 30.16 in NW 2.0 mph 5.0 mph 39% 0.00 in 928.00 W/m2
12:11 65.8 °F 38.1 °F 30.16 in WNW 3.0 mph 3.0 mph 36% 0.00 in 930.00 W/m2
12:16 66.2 °F 39.9 °F 30.15 in Calm     38% 0.00 in 935.00 W/m2
12:21 66.8 °F 41.1 °F 30.15 in WNW 1.0 mph 3.0 mph 39% 0.00 in 937.00 W/m2
12:26 67.2 °F 39.4 °F 30.15 in Calm   4.0 mph 36% 0.00 in 940.00 W/m2
12:31 67.5 °F 38.2 °F 30.15 in NW 5.0 mph 9.0 mph 34% 0.00 in 942.00 W/m2
12:36 67.5 °F 40.3 °F 30.15 in NW 3.0 mph 4.0 mph 37% 0.00 in 944.00 W/m2
12:41 67.9 °F 40.0 °F 30.14 in Calm     36% 0.00 in 944.00 W/m2
12:46 68.2 °F 41.0 °F 30.14 in Calm     37% 0.00 in 944.00 W/m2
12:51 68.4 °F 42.5 °F 30.14 in Calm     39% 0.00 in 947.00 W/m2
12:56 68.4 °F 42.5 °F 30.14 in NW 3.0 mph 6.0 mph 39% 0.00 in 942.00 W/m2
13:01 68.6 °F 42.0 °F 30.14 in NNW 3.0 mph 4.0 mph 38% 0.00 in 947.00 W/m2
13:06 68.8 °F 43.5 °F 30.13 in NW 5.0 mph 5.0 mph 40% 0.00 in 949.00 W/m2
13:11 68.8 °F 41.5 °F 30.13 in Calm   4.0 mph 37% 0.00 in 956.00 W/m2
13:16 68.9 °F 43.6 °F 30.13 in NW 4.0 mph 4.0 mph 40% 0.00 in 886.00 W/m2
13:21 68.8 °F 42.9 °F 30.13 in NW 5.0 mph 6.0 mph 39% 0.00 in 939.00 W/m2
13:26 69.3 °F 41.9 °F 30.12 in Calm     37% 0.00 in 947.00 W/m2
13:31 69.6 °F 42.2 °F 30.12 in NW 1.0 mph 5.0 mph 37% 0.00 in 912.00 W/m2
13:36 69.7 °F 43.0 °F 30.12 in Calm   4.0 mph 38% 0.00 in 932.00 W/m2
13:41 69.9 °F 47.0 °F 30.12 in Calm     44% 0.00 in 921.00 W/m2
13:46 70.0 °F 44.6 °F 30.12 in NW 1.0 mph 9.0 mph 40% 0.00 in 918.00 W/m2
13:51 69.9 °F 45.8 °F 30.11 in Calm   4.0 mph 42% 0.00 in 911.00 W/m2
13:57 69.8 °F 46.3 °F 30.11 in Calm   5.0 mph 43% 0.00 in 912.00 W/m2
14:02 69.7 °F 46.8 °F 30.11 in Calm   5.0 mph 44% 0.00 in 912.00 W/m2
14:07 69.6 °F 45.5 °F 30.11 in Calm   6.0 mph 42% 0.00 in 902.00 W/m2
14:12 69.5 °F 46.0 °F 30.11 in NW 3.0 mph 6.0 mph 43% 0.00 in 893.00 W/m2
14:17 69.7 °F 46.8 °F 30.11 in WNW 5.0 mph 8.0 mph 44% 0.00 in 888.00 W/m2
14:22 69.7 °F 46.8 °F 30.11 in NNW 3.0 mph 10.0 mph 44% 0.00 in 882.00 W/m2
14:27 69.4 °F 47.7 °F 30.11 in Calm   3.0 mph 46% 0.00 in 867.00 W/m2
14:32 69.4 °F 49.4 °F 30.10 in WNW 5.0 mph 7.0 mph 49% 0.00 in 870.00 W/m2
14:37 69.2 °F 47.6 °F 30.10 in WSW 3.0 mph 6.0 mph 46% 0.00 in 860.00 W/m2
14:42 69.1 °F 48.0 °F 30.10 in WNW 5.0 mph 9.0 mph 47% 0.00 in 853.00 W/m2
14:47 69.0 °F 48.5 °F 30.10 in WSW 3.0 mph 4.0 mph 48% 0.00 in 842.00 W/m2
14:52 69.0 °F 48.5 °F 30.10 in NNW 3.0 mph 6.0 mph 48% 0.00 in 831.00 W/m2
14:57 69.0 °F 49.6 °F 30.09 in NW 3.0 mph 8.0 mph 50% 0.00 in 823.00 W/m2
15:02 69.1 °F 49.2 °F 30.09 in NW 6.0 mph 15.0 mph 49% 0.00 in 810.00 W/m2
15:07 68.8 °F 48.9 °F 30.09 in NW 8.0 mph 10.0 mph 49% 0.00 in 798.00 W/m2
15:12 68.7 °F 48.2 °F 30.09 in WNW 3.0 mph 9.0 mph 48% 0.00 in 793.00 W/m2
15:17 68.6 °F 48.2 °F 30.08 in WNW 1.0 mph 7.0 mph 48% 0.00 in 780.00 W/m2
15:22 68.6 °F 48.2 °F 30.08 in West 4.0 mph 10.0 mph 48% 0.00 in 770.00 W/m2
15:27 68.6 °F 48.2 °F 30.08 in Calm   5.0 mph 48% 0.00 in 758.00 W/m2
15:32 68.5 °F 48.6 °F 30.08 in West 1.0 mph 5.0 mph 49% 0.00 in 738.00 W/m2
15:37 68.5 °F 49.2 °F 30.08 in WSW 2.0 mph 5.0 mph 50% 0.00 in 735.00 W/m2
15:42 68.5 °F 48.6 °F 30.08 in West 3.0 mph 5.0 mph 49% 0.00 in 722.00 W/m2
15:47 68.4 °F 48.5 °F 30.07 in Calm   7.0 mph 49% 0.00 in 708.00 W/m2
15:52 68.3 °F 49.5 °F 30.07 in NW 1.0 mph 7.0 mph 51% 0.00 in 698.00 W/m2
15:57 68.2 °F 49.4 °F 30.07 in Calm   7.0 mph 51% 0.00 in 684.00 W/m2
16:02 68.1 °F 48.2 °F 30.07 in WSW 2.0 mph 10.0 mph 49% 0.00 in 671.00 W/m2
16:07 68.2 °F 48.3 °F 30.07 in WNW 4.0 mph 8.0 mph 49% 0.00 in 656.00 W/m2
16:12 68.1 °F 48.2 °F 30.07 in NNW 9.0 mph 10.0 mph 49% 0.00 in 643.00 W/m2
16:17 67.9 °F 47.5 °F 30.07 in Calm   6.0 mph 48% 0.00 in 629.00 W/m2
16:22 67.7 °F 46.2 °F 30.07 in Calm   6.0 mph 46% 0.00 in 615.00 W/m2
16:27 67.6 °F 46.7 °F 30.07 in NW 3.0 mph 6.0 mph 47% 0.00 in 601.00 W/m2
16:32 67.5 °F 46.6 °F 30.07 in NW 3.0 mph 7.0 mph 47% 0.00 in 575.00 W/m2
16:37 67.5 °F 46.6 °F 30.07 in West 4.0 mph 6.0 mph 47% 0.00 in 517.00 W/m2
16:42 67.4 °F 46.5 °F 30.06 in West 4.0 mph 5.0 mph 47% 0.00 in 545.00 W/m2
16:47 67.4 °F 47.0 °F 30.06 in West 2.0 mph 5.0 mph 48% 0.00 in 513.00 W/m2
16:52 67.4 °F 45.9 °F 30.06 in West 3.0 mph 3.0 mph 46% 0.00 in 515.00 W/m2
16:57 67.4 °F 46.5 °F 30.06 in NW 5.0 mph 5.0 mph 47% 0.00 in 468.00 W/m2
17:02 67.4 °F 47.0 °F 30.06 in Calm   6.0 mph 48% 0.00 in 429.00 W/m2
17:07 67.2 °F 46.3 °F 30.06 in WNW 1.0 mph 6.0 mph 47% 0.00 in 381.00 W/m2
17:12 67.1 °F 47.9 °F 30.06 in Calm   4.0 mph 50% 0.00 in 418.00 W/m2
17:18 67.0 °F 48.8 °F 30.05 in Calm   3.0 mph 52% 0.00 in 248.00 W/m2
17:23 66.9 °F 48.7 °F 30.05 in NW 4.0 mph 5.0 mph 52% 0.00 in 485.00 W/m2
17:28 66.7 °F 49.0 °F 30.05 in Calm   2.0 mph 53% 0.00 in 401.00 W/m2
17:32 66.6 °F 49.0 °F 30.05 in NW 1.0 mph 4.0 mph 53% 0.00 in 429.00 W/m2
17:37 66.5 °F 49.4 °F 30.05 in NW 4.0 mph 5.0 mph 54% 0.00 in 343.00 W/m2
17:43 66.4 °F 48.8 °F 30.05 in NW 2.0 mph 5.0 mph 53% 0.00 in 195.00 W/m2
17:48 66.3 °F 47.7 °F 30.05 in NW 1.0 mph 5.0 mph 51% 0.00 in 302.00 W/m2
17:53 66.1 °F 47.5 °F 30.04 in NW 5.0 mph 5.0 mph 51% 0.00 in 339.00 W/m2
17:58 66.0 °F 48.9 °F 30.04 in Calm   4.0 mph 54% 0.00 in 336.00 W/m2
18:02 65.8 °F 48.2 °F 30.04 in NW 4.0 mph 4.0 mph 53% 0.00 in 304.00 W/m2
18:08 65.6 °F 48.5 °F 30.03 in Calm   6.0 mph 54% 0.00 in 253.00 W/m2
18:13 65.5 °F 48.9 °F 30.03 in WNW 3.0 mph 4.0 mph 55% 0.00 in 239.00 W/m2
18:18 65.4 °F 49.3 °F 30.03 in Calm   5.0 mph 56% 0.00 in 183.00 W/m2
18:23 65.4 °F 48.3 °F 30.03 in Calm   1.0 mph 54% 0.00 in 227.00 W/m2
18:28 65.3 °F 48.7 °F 30.03 in Calm   3.0 mph 55% 0.00 in 221.00 W/m2
18:33 65.2 °F 49.6 °F 30.03 in Calm   1.0 mph 57% 0.00 in 185.00 W/m2
18:34 65.1 °F 49.0 °F 30.03 in Calm   2.0 mph 56% 0.00 in 179.00 W/m2
18:40 64.9 °F 50.2 °F 30.03 in Calm   2.0 mph 59% 0.00 in 165.00 W/m2
18:45 64.6 °F 50.9 °F 30.02 in Calm     61% 0.00 in 151.00 W/m2
18:50 64.3 °F 51.0 °F 30.02 in Calm     62% 0.00 in 132.00 W/m2
18:55 64.0 °F 50.7 °F 30.02 in Calm     62% 0.00 in 111.00 W/m2
18:56 63.9 °F 50.2 °F 30.02 in Calm     61% 0.00 in 95.00 W/m2
19:01 63.6 °F 50.4 °F 30.02 in Calm     62% 0.00 in 77.00 W/m2
19:06 63.5 °F 49.8 °F 30.03 in Calm     61% 0.00 in 65.00 W/m2
19:11 63.3 °F 50.1 °F 30.02 in Calm     62% 0.00 in 51.00 W/m2
19:16 63.1 °F 50.3 °F 30.02 in Calm     63% 0.00 in 40.00 W/m2
19:21 62.9 °F 50.5 °F 30.02 in Calm     64% 0.00 in 32.00 W/m2
19:26 62.8 °F 50.5 °F 30.02 in Calm   1.0 mph 64% 0.00 in 23.00 W/m2
19:31 62.6 °F 50.3 °F 30.03 in Calm     64% 0.00 in 18.00 W/m2
19:36 62.4 °F 50.5 °F 30.03 in Calm     65% 0.00 in 12.00 W/m2
19:41 62.2 °F 49.9 °F 30.03 in Calm     64% 0.00 in 9.00 W/m2
19:46 61.9 °F 49.6 °F 30.03 in Calm     64% 0.00 in 5.00 W/m2
19:51 61.6 °F 49.7 °F 30.03 in Calm     65% 0.00 in 0.00 W/m2
19:56 61.3 °F 49.5 °F 30.03 in Calm     65% 0.00 in 0.00 W/m2
20:01 61.0 °F 49.6 °F 30.03 in Calm     66% 0.00 in 0.00 W/m2
20:06 60.6 °F 50.0 °F 30.03 in Calm     68% 0.00 in 0.00 W/m2
20:11 59.7 °F 49.5 °F 30.03 in Calm     69% 0.00 in 0.00 W/m2
20:16 59.1 °F 49.3 °F 30.03 in Calm     70% 0.00 in 0.00 W/m2
20:21 58.5 °F 49.5 °F 30.03 in Calm     72% 0.00 in 0.00 W/m2
20:26 57.8 °F 48.8 °F 30.03 in Calm     72% 0.00 in 0.00 W/m2
20:31 57.1 °F 48.9 °F 30.03 in Calm     74% 0.00 in 0.00 W/m2
20:37 56.8 °F 48.6 °F 30.03 in Calm     74% 0.00 in 0.00 W/m2
20:42 56.5 °F 48.3 °F 30.03 in Calm     74% 0.00 in 0.00 W/m2
20:47 56.2 °F 48.0 °F 30.03 in Calm     74% 0.00 in 0.00 W/m2
20:52 56.0 °F 48.5 °F 30.03 in Calm     76% 0.00 in 0.00 W/m2
20:57 55.8 °F 48.0 °F 30.03 in WNW 2.0 mph 3.0 mph 75% 0.00 in 0.00 W/m2
21:02 55.8 °F 48.4 °F 30.02 in North 2.0 mph 4.0 mph 76% 0.00 in 0.00 W/m2
21:07 55.8 °F 48.4 °F 30.02 in ENE 2.0 mph 5.0 mph 76% 0.00 in 0.00 W/m2
21:12 55.7 °F 48.6 °F 30.02 in Calm   3.0 mph 77% 0.00 in 0.00 W/m2
21:17 55.7 °F 49.0 °F 30.02 in Calm   5.0 mph 78% 0.00 in 0.00 W/m2
21:22 55.7 °F 48.6 °F 30.02 in ESE 2.0 mph 5.0 mph 77% 0.00 in 0.00 W/m2
21:27 55.7 °F 48.6 °F 30.01 in ESE 4.0 mph 5.0 mph 77% 0.00 in 0.00 W/m2
21:32 55.7 °F 48.6 °F 30.02 in East 1.0 mph 9.0 mph 77% 0.00 in 0.00 W/m2
21:37 55.7 °F 48.6 °F 30.02 in Calm   7.0 mph 77% 0.00 in 0.00 W/m2
21:42 55.7 °F 48.3 °F 30.02 in ESE 2.0 mph 6.0 mph 76% 0.00 in 0.00 W/m2
21:47 55.7 °F 48.3 °F 30.02 in Calm   5.0 mph 76% 0.00 in 0.00 W/m2
21:52 55.8 °F 48.4 °F 30.01 in ESE 8.0 mph 9.0 mph 76% 0.00 in 0.00 W/m2
21:57 55.8 °F 48.4 °F 30.01 in ESE 4.0 mph 8.0 mph 76% 0.00 in 0.00 W/m2
22:02 55.8 °F 48.4 °F 30.01 in ESE 1.0 mph 8.0 mph 76% 0.00 in 0.00 W/m2
22:07 55.9 °F 48.5 °F 30.02 in Calm   5.0 mph 76% 0.00 in 0.00 W/m2
22:12 55.9 °F 48.5 °F 30.01 in ESE 6.0 mph 6.0 mph 76% 0.00 in 0.00 W/m2
22:17 56.0 °F 48.9 °F 30.01 in East 1.0 mph 5.0 mph 77% 0.00 in 0.00 W/m2
22:22 56.0 °F 48.9 °F 30.01 in ESE 4.0 mph 6.0 mph 77% 0.00 in 0.00 W/m2
22:27 56.0 °F 49.2 °F 30.02 in Calm   4.0 mph 78% 0.00 in 0.00 W/m2
22:32 55.9 °F 48.1 °F 30.02 in Calm     75% 0.00 in 0.00 W/m2
22:37 55.9 °F 48.1 °F 30.02 in Calm     75% 0.00 in 0.00 W/m2
22:42 55.9 °F 48.5 °F 30.01 in East 2.0 mph 5.0 mph 76% 0.00 in 0.00 W/m2
22:47 55.9 °F 48.5 °F 30.01 in ESE 1.0 mph 8.0 mph 76% 0.00 in 0.00 W/m2
22:52 55.9 °F 48.8 °F 30.01 in Calm   7.0 mph 77% 0.00 in 0.00 W/m2
22:57 55.9 °F 48.8 °F 30.01 in ESE 2.0 mph 5.0 mph 77% 0.00 in 0.00 W/m2
23:02 55.8 °F 48.7 °F 30.01 in ESE 8.0 mph 9.0 mph 77% 0.00 in 0.00 W/m2
23:07 55.8 °F 48.7 °F 30.01 in ESE 1.0 mph 5.0 mph 77% 0.00 in 0.00 W/m2
23:12 55.8 °F 48.7 °F 30.01 in ESE 1.0 mph 4.0 mph 77% 0.00 in 0.00 W/m2
23:17 55.8 °F 48.7 °F 30.01 in Calm   4.0 mph 77% 0.00 in 0.00 W/m2
23:22 55.8 °F 48.7 °F 30.01 in ESE 5.0 mph 6.0 mph 77% 0.00 in 0.00 W/m2
23:27 55.8 °F 48.7 °F 30.01 in ESE 5.0 mph 7.0 mph 77% 0.00 in 0.00 W/m2
23:32 55.8 °F 48.7 °F 30.01 in East 1.0 mph 4.0 mph 77% 0.00 in 0.00 W/m2
23:37 55.8 °F 48.7 °F 30.01 in ESE 4.0 mph 5.0 mph 77% 0.00 in 0.00 W/m2
23:42 55.8 °F 49.0 °F 30.01 in ESE 2.0 mph 6.0 mph 78% 0.00 in 0.00 W/m2
23:47 55.7 °F 48.6 °F 30.01 in ESE 5.0 mph 8.0 mph 77% 0.00 in 0.00 W/m2
23:52 55.6 °F 48.5 °F 30.01 in ESE 2.0 mph 7.0 mph 77% 0.00 in 0.00 W/m2
23:57 55.6 °F 48.5 °F 30.01 in Calm   6.0 mph 77% 0.00 in 0.00 W/m2
Foresthill Weather
 WU-history PHP script courtesy of   Juneau County Weather.
powered by Cumulus v1.9.3 (1059)
Ambient Weather VWS v14.00
Top Contact Website Map Copyright © 2007 - 2018 Foresthillweather.com Never base important decisions on this or any weather information obtained from the Internet